STARLINK-5745 (55575 NORAD) Tracking and Keplerian Element Data

This shows tracking and keplerian element data for the satellite.

Feedback or suggestion? Click here.




ElementValue
Catalog55575
NameSTARLINK-5745
Epoch Orbit130
Epoch Day84.91667824
Epoch Year2023
RAAN112.0806
Inclination42.9967
Eccentricity0.0001215
Argument of Perigee261.0869
Mean Anonmoly342.1215
Mean Motion15.07004634
Decay Rate-0.01170104
L11 55575U 23020G 23084.91667824 -.01170104 00000+0 -83674-1 0 9998
L22 55575 42.9967 112.0806 0001215 261.0869 342.1215 15.07004634 1307



Live tracking and technical data element details for STARLINK-5745 (NORAD 55575). STARLINK-5745 can be tracked NOW for your location showing map with azimuth and elevation plus other details from your city location.







IsCatalogInMostPopularTable: catalog: 55575, numindb: -1

Insert: records affected: 1


GetName: 55575 STARLINK-5745

Hit Count: inserted at: Tue, 28 Mar 2023 03:14:12 GMT